Location: Unspecified
(43.4680°N, 87.1740°E)
Time: 11:58:37
(UTC+00:00)

Daily predictions for brighter satellites

Satellite Brightness Start Highest point End
(mag) Time Altitude Azimuth Time Altitude Azimuth Time Altitude Azimuth
NOSS 3-2 (C) 4.4 13:53:36 10° WSW 13:58:32 48° NW 14:04:25 10° NNE
Cosmos 1603 4.2 13:55:17 10° S 14:00:26 37° ESE 14:05:35 10° NE
USA 234 3.3 13:54:08 10° NE 14:00:41 68° SE 14:07:12 10° SW
Cosmos 2098 Rocket 4.4 13:57:59 10° SSW 14:02:34 54° WNW 14:07:57 10° N
Aureole 1 Rocket 3.7 13:59:05 10° NNW 14:03:48 59° ENE 14:09:45 10° SSE
Geosat 4.1 13:59:56 10° NNE 14:04:58 83° WNW 14:09:58 10° SSW
USA 238 DEB 3.5 13:59:19 10° SSW 14:05:23 78° ESE 14:12:03 10° NE
USA 238 3.5 13:59:25 10° SSW 14:05:29 78° ESE 14:12:09 10° NE
Meteor 2-11 Rocket 4.5 14:00:44 10° N 14:06:49 69° E 14:12:51 10° SSE
Okean 1-7 Rocket 4.4 14:03:11 10° N 14:07:11 34° ENE 14:11:09 10° SE
Cosmos 540 Rocket 4.3 14:03:44 10° SW 14:08:46 55° WNW 14:13:50 10° NNE
Resurs 01 Rocket 3.0 14:09:39 10° SSW 14:13:45 38° W 14:17:53 10° NNW
BlueWalker 3 4.4 14:11:05 10° WNW 14:13:51 20° NNW 14:16:39 10° NE
Cosmos 2151 4.0 14:12:21 10° NNE 14:16:03 29° ENE 14:19:29 11° SE
Meteor PRIRODA 3.2 14:15:25 10° SSE 14:18:18 57° ENE 14:21:13 10° N
Terra 2.7 14:14:52 10° SE 14:19:00 32° ENE 14:23:10 10° N
SPOT 5 2.6 14:16:33 10° SSE 14:20:57 72° ENE 14:25:16 10° N
Cosmos 2263 4.5 14:15:50 10° NNW 14:21:32 72° WSW 14:27:06 10° SSE
Cosmos 1943 3.4 14:16:15 10° SSW 14:21:52 81° WNW 14:27:33 10° NNE
CSL-04 Rocket 4.0 14:16:33 10° S 14:21:57 70° WSW 14:27:19 10° NNW
ATLAS 5 CENTAUR R/B 2.7 14:17:30 10° NW 14:22:09 51° WSW 14:27:51 10° SSE
Gbstr 26 Del rocket 3.9 14:19:16 10° NW 14:25:01 58° NNE 14:29:28 11° ESE
Cosmos 1898 Rocket 3.5 14:21:18 10° NNW 14:26:30 80° ENE 14:31:39 10° SSE
Lacrosse 4 Rocket 1.4 14:23:04 10° S 14:26:50 50° ESE 14:30:40 10° NE
Cosmos 1758 Rocket 3.6 14:24:08 10° N 14:28:25 79° W 14:32:41 10° S
NOSS 2-3 (E) 3.0 14:26:26 10° SSW 14:30:04 68° SE 14:33:51 10° NE
COSMOS 2455 4.2 14:25:49 10° WSW 14:31:31 44° NW 14:37:16 10° NNE
Cosmos 1782 3.3 14:30:53 12° SSE 14:33:50 34° E 14:37:13 10° NNE
NOSS 2-3 (D) 3.0 14:31:24 10° SSW 14:35:04 68° ESE 14:38:51 10° NE
Helios 1B rocket 2.5 14:31:52 10° S 14:35:29 64° WSW 14:39:08 10° NNW
Helios 1A 2.9 14:32:22 10° NNE 14:36:22 61° E 14:40:21 10° S
Cosmos 1825 Rocket 4.0 14:34:10 10° N 14:38:18 43° ENE 14:41:19 17° SE
Cosmos 1602 Rocket 3.6 14:36:44 10° N 14:41:07 82° W 14:45:24 10° S
Cosmos 2369 Rocket 3.6 14:37:24 10° NW 14:42:33 36° WSW 14:47:39 10° S
Cosmos 1441 Rocket 3.4 14:41:13 10° NNW 14:44:42 60° W 14:48:10 10° S
Alouette 2 Rocket 4.0 14:43:07 10° N 14:46:29 37° ENE 14:48:41 20° SE
Cosmos 1933 4.4 14:47:13 20° ESE 14:48:38 25° E 14:51:51 10° NNE
CZ-4B R/B 4.0 14:44:05 10° S 14:48:41 53° W 14:53:24 10° NNW
NOSS 8 (H) 4.5 14:45:54 10° NW 14:48:59 74° SW 14:51:23 21° SSE
DEBRIS 3.5 14:41:33 10° WNW 14:49:48 58° SW 14:51:42 22° SSE
Cosmos 1400 Rocket 3.8 14:49:42 21° ESE 14:50:45 24° E 14:53:46 10° NE
ISS -1.6 14:48:16 10° WNW 14:51:13 28° NNW 14:54:10 10° NE
Cosmos 1606 Rocket 3.5 14:52:09 10° S 14:56:33 82° E 15:01:02 10° N
Cosmos 1076 Rocket 4.2 14:56:20 10° N 15:00:24 39° ENE 15:02:22 25° SE
Cosmos 858 Rocket 4.4 14:56:59 10° NNW 15:02:12 88° ENE 15:05:44 21° SSE
Cosmos 1833 Rocket 3.9 15:04:26 20° ESE 15:05:27 21° E 15:09:36 10° NE
IRS-1C Rocket 4.4 15:02:49 22° SE 15:06:03 54° ENE 15:11:11 10° N
CZ-4 R/B 4.2 15:05:03 10° WSW 15:06:55 13° W 15:08:49 10° WNW
Cosmos 1346 Rocket 4.4 15:06:13 10° NNE 15:08:51 18° ENE 15:09:30 17° E
Okean-O 2.8 15:06:11 17° S 15:09:30 68° WSW 15:13:53 10° NNW
SAR-Lupe-2 3.4 15:08:24 30° SSE 15:10:02 78° ENE 15:13:37 10° N
Okean O Rocket 2.5 15:07:29 11° S 15:11:27 45° W 15:15:39 10° NNW
Cosmos 1953 Rocket 3.7 15:07:11 10° N 15:11:36 59° E 15:13:44 29° SSE
PSLV R/B 4.1 15:11:13 32° E 15:11:49 35° ENE 15:14:47 10° N
SWAS 4.3 15:09:48 15° S 15:13:03 57° ESE 15:17:04 10° NE
IKONOS-2 4.3 15:09:08 10° NNE 15:13:16 79° ESE 15:16:17 18° S
Cosmos 374 Rocket 4.5 15:10:21 10° SSW 15:14:07 54° ESE 15:18:35 10° NE
Spot 2 Rocket 3.4 15:11:40 24° SSE 15:14:44 77° ENE 15:19:46 10° N
NOSS 2-3 (C) 4.4 15:14:32 10° WSW 15:17:52 41° NW 15:21:29 10° NNE
ERS-1 Rocket 3.4 15:14:22 16° S 15:18:20 60° W 15:23:18 10° NNW
Meteor 1-20 Rocket 4.3 15:17:13 10° NNW 15:22:59 81° W 15:26:57 21° S
Meteor 1-25 Rocket 4.1 15:18:55 10° N 15:24:30 82° E 15:27:39 27° SSE
Cosmos 1980 Rocket 4.4 15:22:29 10° NNE 15:25:04 13° NE 15:27:38 10° ENE
ARIANE 6 FM1 Upper Stage 4.3 15:27:35 18° ENE 15:27:35 18° ENE 15:29:05 10° ENE
SeaSat 1 3.0 15:24:23 27° ESE 15:26:37 45° ENE 15:31:17 10° NNW
CZ-4C R/B 3.2 15:19:56 10° NNW 15:27:04 68° NE 15:32:25 25° SE
Atlas Centaur 2 4.3 15:30:56 10° WSW 15:36:04 20° SSW 15:37:49 18° S
Iridium 4 Rocket 3.7 15:35:29 10° N 15:40:22 68° W 15:43:38 23° SSW
USA 234 4.4 15:37:19 10° NE 15:43:30 46° NNW 15:49:40 10° W
Cosmos 1743 2.2 15:40:54 10° N 15:44:21 88° W 15:44:39 73° S
USA 245 4.3 15:50:51 30° SW 15:52:00 39° W 15:56:01 10° NNW
Cosmos 2327 Rocket 4.4 15:46:00 10° N 15:52:12 78° E 15:54:46 37° SSE
BlueWalker 3 4.3 15:49:54 10° NW 15:52:35 19° N 15:55:17 10° ENE
Cosmos 2344 4.5 15:45:59 10° WSW 15:53:17 47° NW 16:00:19 10° NNE
SL-8 Rocket 4.2 15:48:49 10° N 15:54:52 55° ENE 15:56:57 38° SE
Terra 3.4 15:53:31 15° SW 15:56:32 28° W 16:00:34 10° NW
Cosmos 1733 3.8 15:53:41 10° N 15:55:55 36° NE 15:55:55 36° NE
Cosmos 2341 Rocket 4.1 15:50:51 10° N 15:57:02 58° E 15:59:12 39° SE
Meteor 2-2 Rocket 4.2 15:54:41 36° S 15:57:13 74° E 16:03:10 10° NNE
Cosmos 1125 Rocket 4.0 15:52:27 10° N 15:57:35 47° ENE 15:59:02 37° ESE
Cosmos 1570 Rocket 4.4 15:59:37 42° ESE 16:00:00 43° ESE 16:04:57 10° NNE
Cosmos 1697 Rocket 3.4 15:55:18 10° NNW 16:00:41 42° ENE 16:02:34 32° ESE
Cosmos 158 Rocket 3.9 15:59:30 38° S 16:01:35 79° ESE 16:06:56 10° NNE
BREEZE-M R/B 4.4 15:44:33 10° WNW 16:01:47 62° N 16:05:19 17° E
Cosmos 2058 Rocket 3.7 15:59:46 27° SW 16:01:58 55° W 16:06:23 10° N
SPOT 3 Rocket 3.8 16:01:04 35° SSW 16:03:06 60° W 16:08:11 10° NNW
Lacrosse 4 Rocket 4.2 16:02:26 10° W 16:05:05 17° NW 16:07:46 10° N
Lacrosse 5 rocket 3.1 16:03:34 10° NNW 16:06:14 20° NNE 16:07:20 17° NE
Cosmos 2082 Rocket 4.0 16:10:53 16° E 16:10:53 16° E 16:13:05 10° ENE
COBE Rocket 4.4 16:05:05 10° NNE 16:09:56 43° E 16:10:12 43° ESE
Gbstr 26 Del rocket 4.0 16:06:38 10° WNW 16:11:18 35° SW 16:11:33 34° SW
Ariane Rocket 3.5 16:10:26 36° SSW 16:12:11 52° W 16:17:09 10° NNW
Cosmos-2242 3.3 16:12:46 44° SW 16:13:50 60° W 16:18:05 10° N
ATLAS CENTAUR R/B 2.1 16:17:04 38° NE 16:17:04 38° NE 16:19:33 10° NE
Cosmos 1356 Rocket 3.6 16:18:09 57° ENE 16:18:09 57° ENE 16:21:49 10° NNE
Cosmos 2221 3.3 16:20:06 37° ENE 16:20:06 37° ENE 16:23:19 10° NNE
Cosmos 1812 Rocket 3.6 16:20:44 59° ENE 16:20:44 59° ENE 16:24:43 10° NNE
Cosmos 1238 Rocket 3.5 16:24:26 43° NE 16:24:26 43° NE 16:27:16 10° NNE
ARIANE 5 R/B 3.9 16:24:28 28° ENE 16:24:33 28° ENE 16:28:14 10° N
Meteor 1-26 Rocket 4.4 16:25:59 39° SSW 16:28:11 75° W 16:34:09 10° N
ISS -1.1 16:26:10 10° NW 16:28:44 20° N 16:30:43 13° NE
Meteor 1-14 Rocket 4.4 16:32:16 10° N 16:37:46 58° ENE 16:38:34 53° ESE
Meteor 2-10 4.1 16:35:07 10° N 16:40:52 82° E 16:41:44 65° SSE
MetOp-A 4.2 16:43:35 53° E 16:43:57 55° ENE 16:48:59 10° N
Cosmos 1346 Rocket 4.2 16:41:04 10° NNW 16:44:04 28° W 16:44:04 28° W
Cosmos 2218 Rocket 4.0 16:38:48 10° N 16:45:11 75° W 16:46:53 51° SSW
Cosmos 1536 3.8 16:42:31 10° N 16:45:17 38° NE 16:45:17 38° NE
Cosmos 1833 Rocket 3.2 16:46:01 28° SW 16:48:52 57° WNW 16:54:26 10° NNE
Cosmos 1821 Rocket 3.8 16:43:59 10° N 16:50:08 80° E 16:51:14 61° SSE
Cosmos 773 Rocket 3.9 16:53:09 69° E 16:53:09 69° E 16:58:06 10° NNE
Cosmos 44 3.3 16:49:37 10° NNW 16:54:06 69° NE 16:54:06 69° NE
NOSS 3-1 (C) 3.1 16:58:56 55° WSW 16:59:53 70° NW 17:05:29 10° NNE
Cosmos 1900 4.3 16:54:58 10° NNW 17:00:05 89° NE 17:00:10 87° ESE
Cosmos 2181 Rocket 4.2 16:59:11 46° SW 17:01:01 67° W 17:07:20 10° N
SeaSat 1 3.8 17:04:01 26° WSW 17:04:08 26° WSW 17:08:13 10° NW
ARIANE 6 FM1 Upper Stage 4.0 17:03:36 29° WNW 17:04:43 35° NW 17:08:28 10° NNE
Cosmos 2208 Rocket 4.3 17:07:42 56° WSW 17:08:38 67° WNW 17:14:00 10° NNE
CZ-4C R/B 4.5 17:05:25 10° N 17:08:19 37° NW 17:08:19 37° NW
Cosmos 1980 Rocket 2.2 17:04:34 10° NNW 17:10:09 68° ENE 17:10:41 64° E
SL-16 R/B 4.2 17:09:41 10° N 17:13:49 20° NE 17:16:44 14° E
CZ-4C R/B 4.0 17:08:40 10° NW 17:15:23 34° WSW 17:17:24 31° SW
Meteor 1-10 Rocket 4.2 17:16:42 74° SSE 17:17:12 81° E 17:23:07 10° NNE
Landsat 5 4.1 17:13:44 10° NNE 17:16:53 52° NNE 17:16:53 52° NNE
Cosmos 2084 Rocket 4.3 17:20:23 45° NNE 17:20:23 45° NNE 17:23:25 10° NE
ALOS 2 3.2 17:20:55 50° NE 17:20:55 50° NE 17:24:38 10° N
NOSS 3-1 (A) 3.0 17:26:22 68° ENE 17:26:22 68° ENE 17:31:20 10° NE
Meteor 2-13 Rocket 4.4 17:29:13 64° ESE 17:29:40 67° E 17:35:47 10° NNE
BlueWalker 3 3.7 17:27:26 10° NW 17:29:31 29° NNW 17:29:31 29° NNW
Nadezhda 3 Rocket 3.9 17:30:14 65° SW 17:31:07 77° W 17:37:21 10° N
Cosmos 1766 Rocket 4.1 17:27:52 10° NNW 17:31:26 55° NW 17:31:26 55° NW
CZ-2C R/B 4.3 17:28:16 10° N 17:32:15 49° WNW 17:32:15 49° WNW
Spot 4 4.0 17:34:26 70° NW 17:34:26 70° NW 17:38:42 10° NNW
Cosmos 2298 Rocket 4.2 17:28:56 10° NNW 17:33:58 61° W 17:33:58 61° W
Cosmos 783 Rocket 4.5 17:35:07 77° NE 17:35:07 77° NE 17:39:59 10° NNE
Cosmos 1867 3.8 17:29:47 10° NW 17:34:43 58° W 17:34:43 58° W
Cosmos 2369 3.6 17:37:06 10° NNW 17:42:48 78° ENE 17:43:01 76° E
Lacrosse 5 rocket 3.6 17:40:32 10° NW 17:41:18 16° NW 17:41:18 16° NW
Cosmos 1697 Rocket 3.9 17:39:35 10° NW 17:44:16 30° W 17:44:16 30° W
Cosmos 2360 Rocket 4.3 17:45:45 10° N 17:49:45 19° NE 17:53:28 11° E
Cosmos 1339 Rocket 4.3 17:49:39 71° SW 17:50:14 79° W 17:56:21 10° N
ATLAS CENTAUR R/B 4.0 17:50:30 11° WNW 17:52:24 14° NW 17:54:34 10° N
Cosmos 2082 Rocket 2.2 17:52:40 68° W 17:53:02 71° WNW 17:58:41 10° NNE
COSMOS 2406 3.1 17:53:47 74° E 17:53:47 74° E 17:59:18 10° NNE
Cosmos 1934 Rocket 3.8 17:49:10 10° N 17:55:24 83° W 17:55:59 74° SSW
Meteor 2-15 4.2 17:51:12 10° N 17:57:21 90° WSW 17:57:47 79° S
Meteor 1-27 Rocket 3.7 17:57:40 73° W 17:57:52 74° W 18:03:28 10° N
Cosmos 1605 Rocket 4.1 17:54:11 10° N 18:00:31 65° E 18:01:19 59° ESE
ARIANE 5 R/B 4.3 18:01:52 25° WNW 18:01:52 25° WNW 18:04:31 10° NW
USA 229 DEB 4.4 18:04:10 33° E 18:04:10 33° E 18:09:17 10° NE
USA 229 4.4 18:04:17 33° E 18:04:17 33° E 18:09:22 10° NE
ISS -0.8 18:02:59 10° NW 18:03:38 14° NW 18:03:38 14° NW
Cosmos 2333 Rocket 3.7 18:04:01 10° N 18:09:04 31° NE 18:11:37 22° E
Timation 1 Rocket 4.3 18:08:40 67° WSW 18:09:17 74° WNW 18:15:18 10° NNE
Meteor 2-15 Rocket 4.3 18:05:03 10° N 18:11:13 85° E 18:11:42 77° SSE
Meteor 1-11 Rocket 4.4 18:08:10 10° NNW 18:13:11 39° W 18:13:11 39° W
Cosmos 1151 Rocket 4.0 18:15:53 41° NE 18:15:53 41° NE 18:18:53 10° NNE
ATLAS 3B R/B 2.8 18:14:33 59° SSE 18:15:32 65° ESE 18:23:13 10° NE
Exosat Rocket 4.0 18:13:09 10° NNW 18:18:08 52° ENE 18:18:32 50° E
Cosmos 1932 4.4 18:15:30 10° NW 18:21:55 69° WSW 18:22:08 68° SW
Meteor 2-4 Rocket 3.6 18:22:37 79° W 18:22:44 80° W 18:28:29 10° N
Cosmos 1500 Rocket 4.2 18:22:54 10° N 18:26:12 51° NNW 18:26:12 51° NNW
CENTAUR R/B 4.4 18:20:38 10° NNW 18:28:13 41° NE 18:36:47 10° ESE
GP-B 3.6 18:28:09 10° N 18:31:38 56° N 18:31:38 56° N
Meteor 2-8 Rocket 4.3 18:26:24 10° N 18:32:36 85° W 18:33:07 75° SSW
Meteor 1-18 Rocket 4.1 18:36:12 83° S 18:36:27 90° E 18:42:19 10° N
USA 59 Rocket 1.9 18:38:38 19° N 18:38:38 19° N 18:39:44 10° NNE
Cosmos 1727 Rocket 4.0 18:39:31 62° SE 18:40:19 68° E 18:46:31 10° NNE
Cosmos 1805 Rocket 4.4 18:37:24 10° NNW 18:40:45 46° NW 18:40:45 46° NW
GEOS 3 Rocket 3.4 18:47:13 83° E 18:47:20 85° NE 18:52:30 10° NW
Sich 1 4.4 18:43:44 10° NNW 18:46:26 31° NW 18:46:26 31° NW
Cosmos 2219 Rocket 3.8 18:43:37 10° N 18:48:29 29° NE 18:52:37 13° ESE
H-2A R/B 3.2 18:50:17 48° NNE 18:50:17 48° NNE 18:53:21 10° N
Cosmos 923 Rocket 4.1 18:49:33 64° E 18:49:33 64° E 18:54:43 10° NNE
Cosmos 1980 Rocket 4.1 18:49:55 10° WNW 18:52:25 17° W 18:52:25 17° W
SL-16 R/B 2.1 18:52:50 10° NNW 18:58:31 74° WSW 18:58:32 74° WSW
Cosmos 2100 Rocket 4.2 18:52:30 10° N 18:58:49 67° E 19:00:18 51° SE
Cosmos 1743 Rocket 4.4 18:54:30 10° NNW 18:57:51 44° NW 18:57:51 44° NW
CZ-2C R/B 3.6 18:53:31 10° NNE 18:59:13 56° E 18:59:55 52° SE
Cosmos 1328 Rocket 4.1 19:01:15 53° NE 19:01:15 53° NE 19:04:51 10° NNE
Cosmos 1680 Rocket 3.6 19:03:31 62° ESE 19:03:34 62° ESE 19:08:44 10° NNE
IDEFIX/ARIANE 42P 3.9 19:02:01 10° NE 19:06:32 28° E 19:07:27 27° ESE
Cosmos 1066 Rocket 4.5 19:07:48 51° W 19:08:13 52° WNW 19:13:46 10° N
Cosmos 2322 Rocket 2.1 19:05:23 10° NNW 19:11:05 84° ENE 19:11:57 65° SE
CZ-2C R/B 2.6 19:10:27 64° SE 19:11:06 73° ENE 19:16:17 10° N
Cosmos 2056 Rocket 4.1 19:08:03 10° NNW 19:13:17 54° ENE 19:14:49 40° ESE
ASTEX 1 4.4 19:10:14 10° NNW 19:14:38 34° WNW 19:14:38 34° WNW
USA 281 4.4 19:11:16 10° NE 19:16:52 29° ESE 19:19:02 24° SE
Cosmos 1624 Rocket 4.4 19:13:43 10° NNW 19:18:51 58° ENE 19:20:15 43° ESE
Spot 2 4.3 19:19:01 80° SE 19:19:15 84° ENE 19:24:15 10° NNW
SL-19 R/B 4.5 19:13:52 10° NNE 19:20:16 72° ESE 19:21:30 56° SSE
Cosmos 2278 4.1 19:16:35 10° NW 19:21:32 46° W 19:21:32 46° W
Cosmos 1000 Rocket 4.4 19:22:40 61° SSW 19:23:45 77° W 19:29:56 10° N
Cosmos 1725 Rocket 4.2 19:20:03 10° N 19:26:13 65° E 19:28:27 40° SE
Cosmos 1459 Rocket 3.8 19:21:58 10° N 19:28:05 82° W 19:29:23 58° S
ADEOS II 4.5 19:25:40 10° ENE 19:28:06 13° E 19:30:31 10° ESE
Cosmos 1864 Rocket 4.5 19:22:14 10° N 19:28:23 74° E 19:30:17 46° SSE
Meteor 1-13 Rocket 4.4 19:30:01 51° SSE 19:31:20 67° E 19:37:12 10° NNE
Cosmos 1666 Rocket 4.1 19:29:14 10° NNW 19:32:47 49° WNW 19:32:47 49° WNW
Cosmos 2360 Rocket 2.0 19:28:45 10° NNW 19:34:22 77° WSW 19:35:10 64° S
Cosmos 2173 Rocket 4.0 19:29:42 10° NNW 19:36:02 68° W 19:37:22 54° SSW
H-2A R/B 2.7 19:37:02 10° NNE 19:40:59 41° E 19:41:10 41° ESE
Cosmos 2123 Rocket 3.9 19:39:21 53° SSW 19:40:59 83° W 19:47:21 10° N
Cosmos 2061 Rocket 4.3 19:44:52 10° N 19:51:18 67° E 19:54:45 29° SSE
Cosmos 2333 Rocket 2.5 19:48:06 10° NW 19:53:30 44° WSW 19:53:35 44° WSW
Cosmos 1437 Rocket 3.8 19:53:26 32° E 19:53:33 32° E 19:56:44 10° NNE
Cosmos 2233 Rocket 4.1 19:47:55 10° N 19:54:07 73° E 19:57:14 31° SSE
USA 229 DEB 4.1 19:51:34 31° W 19:54:10 49° NW 20:00:43 10° NNE
USA 229 4.1 19:51:41 31° W 19:54:16 49° NW 20:00:49 10° NNE
DELTA 2 R/B (1) 3.6 19:58:02 55° SSW 19:58:08 55° S 20:03:35 10° ESE
Cosmos 1470 Rocket 3.8 19:56:45 10° NNW 20:00:43 52° W 20:00:43 52° W
Cosmos 2112 Rocket 4.5 20:02:43 41° WSW 20:03:51 48° WNW 20:08:57 10° N
ATLAS 3B R/B 4.0 20:01:45 18° W 20:06:49 37° NW 20:14:02 10° NNE
Cosmos 2322 4.4 20:01:56 10° NNW 20:07:32 54° ENE 20:13:05 10° SE
IRIDIUM 104 4.3 20:08:15 50° SW 20:09:23 65° W 20:14:35 10° N
NPP 3.6 20:05:51 10° NNE 20:11:16 90° W 20:13:04 44° SSW
Meteor 2-10 Rocket 4.4 20:06:11 10° NNW 20:11:22 37° W 20:12:08 35° WSW
Cosmos 1933 Rocket 3.4 20:08:15 10° N 20:12:42 87° W 20:13:39 55° S
Cosmos 1455 4.3 20:11:27 10° NW 20:11:45 12° NW 20:11:45 12° NW
Cosmos 1633 Rocket 4.5 20:10:57 10° NW 20:13:51 24° WNW 20:13:51 24° WNW
USA 267 3.2 20:08:27 10° NE 20:15:01 77° SE 20:17:58 36° SW
SL-08 R/B 4.5 20:09:57 10° NNW 20:16:10 64° W 20:18:33 38° SSW
Cosmos 1758 4.2 20:12:43 10° NNW 20:15:34 33° WNW 20:15:34 33° WNW
Meteor 1-22 Rocket 4.2 20:11:43 10° NNW 20:17:02 55° W 20:18:18 44° SW
Meteor 1-15 Rocket 4.3 20:11:36 10° NNW 20:17:27 68° W 20:19:39 38° SSW
Cosmos 2333 4.5 20:12:50 10° NW 20:18:12 44° WSW 20:19:02 41° SW
CENTAUR R/B 3.3 20:11:06 10° NW 20:19:34 71° WSW 20:28:54 10° SSE
Meteor 2-16 Rocket 4.4 20:17:38 36° S 20:20:22 89° WNW 20:26:30 10° N
BREEZE-M R/B 3.5 20:20:24 34° NW 20:21:21 60° NNE 20:27:15 10° ESE
Cosmos 1515 Rocket 4.1 20:22:44 38° W 20:23:08 39° WNW 20:27:14 10° N
Meteor 2-21 Rocket 4.4 20:20:41 37° SSW 20:23:16 74° W 20:29:30 10° N
Cosmos 1869 Rocket 3.6 20:20:26 10° N 20:24:53 82° E 20:26:41 36° SSE
COSMOS 2441 4.3 20:21:02 10° NNE 20:25:50 77° ESE 20:27:39 38° S
Resurs 1-4 Rocket 2.2 20:22:22 10° NNE 20:27:38 70° ESE 20:30:11 31° S
SL-16 R/B 4.1 20:23:58 10° SE 20:29:24 34° ENE 20:34:51 10° N
Cosmos 397 4.4 20:30:30 50° SW 20:31:28 78° WNW 20:36:00 10° NNE
Cosmos 2346 Rocket 4.4 20:28:34 30° S 20:31:53 90° WNW 20:38:11 10° N
Cosmos 2219 Rocket 2.4 20:27:15 10° NW 20:32:36 46° WSW 20:34:15 35° SSW
Cosmos 1452 Rocket 3.6 20:29:45 10° NNW 20:35:00 78° ENE 20:40:14 10° SSE
Cosmos 1825 3.2 20:36:57 22° ENE 20:36:57 22° ENE 20:38:08 10° NNE
Cosmos 921 Rocket 4.0 20:35:06 23° SSE 20:37:07 37° E 20:40:58 10° NNE
Cosmos 1110 Rocket 3.9 20:32:02 10° NNW 20:37:21 83° WSW 20:41:35 16° SSE
Cosmos 1447 Rocket 4.4 20:35:07 31° SSW 20:38:17 76° W 20:44:27 10° N
Cosmos 2297 Rocket 3.1 20:35:25 20° SSE 20:38:58 42° ESE 20:44:17 10° NE
NOSS 3-2 (A) 4.1 20:33:14 10° NW 20:40:49 85° SW 20:49:48 10° SSE
Meteor 1-21 4.2 20:38:30 33° SSW 20:41:02 69° WNW 20:46:39 10° N
H-2A R/B 4.4 20:40:11 10° NE 20:44:02 20° E 20:47:53 10° SE
CZ-2D R/B 2.1 20:39:16 10° NNE 20:44:46 90° ESE 20:47:54 27° SSW
IDEFIX/ARIANE 42P 3.3 20:41:14 10° N 20:46:03 38° WNW 20:48:08 27° WSW
COSMOS 2428 2.7 20:41:18 10° NNW 20:47:03 89° WSW 20:52:46 10° SSE
MSX 4.4 20:41:41 10° N 20:47:09 45° WNW 20:49:52 27° WSW
USA 234 3.8 20:43:13 10° ESE 20:49:38 63° NNE 20:56:04 10° NW
Cosmos 1862 Rocket 4.2 20:46:56 19° SSE 20:49:53 53° E 20:54:13 10° NNE
SAR-Lupe-3 4.5 20:50:40 44° W 20:50:40 44° W 20:53:16 10° NNW
Cosmos 1048 Rocket 4.4 20:48:38 30° WSW 20:50:46 47° WNW 20:55:42 10° N
CZ-2C R/B 4.4 20:51:54 14° W 20:51:54 14° W 20:54:36 10° WNW
Cosmos 1733 Rocket 3.5 20:48:55 10° N 20:53:18 61° E 20:57:39 10° SSE
Cosmos 2322 Rocket 4.0 20:51:33 10° WNW 20:53:42 14° W 20:53:42 14° W
Aureole 3 Rocket 3.4 20:51:15 10° N 20:56:23 67° E 20:59:47 12° SSE
AQUA 4.4 20:55:09 10° NNE 20:59:45 53° E 21:03:38 14° S
USA 281 3.5 20:55:14 10° NNE 21:01:38 57° WNW 21:05:55 22° SW
Cosmos 2227 Rocket 3.7 20:58:48 10° SSE 21:03:40 31° ESE 21:08:34 10° NE
Cosmos 1953 2.4 21:00:12 10° NNW 21:03:43 45° W 21:04:53 33° SW
Cosmos 1980 4.3 21:01:42 10° NNW 21:07:20 60° ENE 21:12:54 10° SE
Okean 3 3.5 21:05:37 28° SSW 21:07:33 58° W 21:11:39 10° N
ADEOS II 2.0 21:03:01 10° NNE 21:08:16 80° WNW 21:12:00 20° SSW
Okean 2 3.4 21:06:51 29° SSW 21:08:38 57° W 21:12:32 10° N
Okean 1-7 3.6 21:05:27 13° S 21:09:10 55° E 21:13:18 10° NNE
Cosmos 1302 Rocket 4.0 21:07:57 10° NNW 21:13:11 83° ENE 21:18:24 10° SSE
Cosmos 1331 Rocket 4.4 21:08:50 10° NNW 21:13:42 42° WSW 21:17:37 15° SSW
ALOS 2.2 21:10:04 10° N 21:14:38 71° WNW 21:17:46 20° SSW
H-2A R/B 3.8 21:13:15 10° NNW 21:16:04 18° WNW 21:17:41 15° W
Cosmos 1437 Rocket 4.5 21:27:42 14° W 21:28:46 15° WNW 21:30:54 10° NNW
Meteor 1-28 Rocket 3.1 21:26:44 10° SSE 21:30:07 75° ENE 21:33:34 10° N
NOSS 3-2 (C) 4.2 21:22:36 10° NW 21:30:12 87° SW 21:39:12 10° SSE
Cosmos 1703 Rocket 4.5 21:29:24 10° SSE 21:33:39 49° E 21:37:56 10° NNE
Cosmos 1892 2.1 21:31:48 18° SSW 21:33:54 64° W 21:36:58 10° N
Cosmos 44 Rocket 3.2 21:29:33 10° NW 21:34:22 74° WSW 21:39:16 10° SSE
DELTA 2 R/B (1) 4.4 21:39:12 10° W 21:43:58 29° SSW 21:48:44 10° SSE
Envisat 3.3 21:39:30 10° N 21:44:25 51° WNW 21:49:06 11° SW
Cosmos 2237 Rocket 2.1 21:39:24 10° NNW 21:45:03 76° WSW 21:50:41 10° SSE
COSMOS 2455 4.2 21:39:18 10° NNW 21:45:05 45° NE 21:50:49 10° SE
DMSP B5D2-2 4.2 21:43:58 10° S 21:49:03 56° W 21:54:12 10° NNW
Cosmos 1707 Rocket 4.4 21:46:04 13° SW 21:49:25 33° WNW 21:53:24 10° N
NOSS 2-2 (D) 4.0 21:45:46 10° NW 21:49:56 81° NE 21:55:49 10° SE
Tiangong -1.2 21:50:23 14° SW 21:52:43 36° SSE 21:55:41 10° E
USA 267 4.2 21:51:41 10° NE 21:57:44 42° NNW 22:03:47 10° W
Cosmos 1703 4.4 21:55:49 12° WSW 21:58:10 22° WNW 22:00:56 10° NNW
Cosmos 1992 Rocket 3.9 21:55:44 10° NNW 22:00:56 71° WSW 22:06:05 10° S
Cosmos 2228 Rocket 4.2 21:58:06 10° SW 22:01:55 28° WNW 22:05:53 10° NNW
Cosmos 2263 Rocket 3.1 21:59:57 10° S 22:05:17 48° ESE 22:10:42 10° NE
Meteor 2-17 Rocket 4.5 21:59:40 10° S 22:05:47 80° W 22:11:54 10° N
Cosmos 1300 Rocket 4.3 22:02:11 10° N 22:06:26 57° E 22:10:41 10° SSE
Resurs 1-4 Rocket 3.8 22:03:27 10° NNW 22:06:49 17° WNW 22:10:10 10° W
NOSS 2-2 (C) 4.2 22:02:37 10° NW 22:06:53 48° WSW 22:12:47 10° SSE
Cosmos 489 Rocket 4.5 22:03:59 10° NNW 22:10:15 81° WSW 22:16:27 10° SSE
SL-16 R/B 2.9 22:07:03 10° S 22:12:49 42° W 22:18:39 10° NNW
NOSS 3-4 (A) 3.2 22:08:52 10° SW 22:14:12 88° ESE 22:20:02 10° NE
NOSS 3-4 (C) 3.2 22:09:04 10° SSW 22:14:23 87° SE 22:20:12 10° NE
Cosmos 1140 Rocket 4.1 22:11:38 10° S 22:16:44 59° ESE 22:21:51 10° NNE
SL-16 R/B 3.0 22:11:31 10° NNW 22:17:08 59° ENE 22:22:42 10° SE
